Date String (YYYY-MM-DD hh:mm:ss) UTC,Instrument flags,Ambient pressure (hPa),Sample flow (lpm),Bypass flow (lpm),Sample temperature (°C),Ambient temperature (°C),ASC tube jacket temperature (°C),LED temperature (°C),Box temperature (°C),Sample RH (%),Mass concentration (μg/m³),Mass concentration (μg/m³)
DateTimeUTC,F1_M11,P_M11,Q1_M11,Q2_M11,T1_M11,T2_M11,T3_M11,T4_M11,T5_M11,U1_M11,X0_M11,X2_M11
2021-08-13 14:00:00,,0835.3,5.01,0.00,29.5,28.2,00.0,38.8,31.5,29.9,0027.30,0007.86
2021-08-13 14:01:00,,0835.3,4.99,0.00,29.6,28.4,00.0,38.8,31.5,30.0,0027.50,0007.80
2021-08-13 14:02:00,,0835.3,4.99,0.00,29.6,28.5,00.0,38.8,31.6,30.2,0027.83,0007.81
2021-08-13 14:03:00,,0835.3,5.00,0.00,29.7,28.7,00.0,38.8,31.7,30.1,0028.51,0007.80
2021-08-13 14:04:00,,0835.3,4.99,0.00,29.7,28.8,00.0,38.8,31.7,30.1,0029.45,0007.78
2021-08-13 14:05:00,,0835.3,4.99,0.00,29.8,28.8,00.0,38.8,31.7,29.6,0029.45,0007.76
2021-08-13 14:06:00,,0835.4,5.01,0.00,29.8,28.9,00.0,38.8,31.8,29.8,0029.34,0007.77
2021-08-13 14:07:00,,0835.4,4.99,0.00,29.8,29.0,00.0,38.9,31.8,29.5,0028.89,0007.80
2021-08-13 14:08:00,,0835.4,5.00,0.00,29.9,29.1,00.0,38.9,31.8,29.8,0026.27,0007.71
2021-08-13 14:09:00,,0835.5,5.00,0.00,29.9,29.1,00.0,38.9,31.9,29.4,0025.63,0007.68
2021-08-13 14:10:00,,0835.5,5.00,0.00,29.9,29.2,00.0,38.9,31.9,29.6,0026.45,0007.69
2021-08-13 14:11:00,,0835.5,5.01,0.00,30.0,29.2,00.0,38.9,31.9,29.5,0026.94,0007.73
2021-08-13 14:12:00,,0835.4,4.99,0.00,30.0,29.3,00.0,39.0,32.0,29.3,0026.43,0007.72
2021-08-13 14:13:00,,0835.5,5.00,0.00,30.0,29.0,00.0,39.0,31.9,29.5,0025.33,0007.70
2021-08-13 14:14:00,,0835.4,5.00,0.00,30.0,27.3,00.0,39.0,31.5,29.2,0024.97,0007.70
2021-08-13 14:15:00,,0835.4,5.00,0.00,29.7,26.2,00.0,38.9,31.1,30.2,0025.37,0007.72
2021-08-13 14:16:00,,0835.4,5.02,0.00,29.6,26.3,00.0,38.9,31.1,30.4,0025.31,0007.75
2021-08-13 14:17:00,,0835.4,5.00,0.00,29.5,26.7,00.0,38.8,31.2,30.6,0025.58,0007.78
2021-08-13 14:18:00,,0835.4,4.99,0.00,29.5,27.1,00.0,38.8,31.3,30.8,0026.81,0007.85
2021-08-13 14:19:00,,0835.4,5.01,0.00,29.5,27.5,00.0,38.8,31.3,30.2,0026.70,0007.89
2021-08-13 14:20:00,,0835.5,4.99,0.00,29.5,27.8,00.0,38.8,31.4,30.5,0026.25,0007.88
2021-08-13 14:21:00,,0835.5,5.02,0.00,29.5,28.1,00.0,38.7,31.5,31.2,0025.07,0007.81
2021-08-13 14:22:00,,0835.5,4.99,0.00,29.5,28.3,00.0,38.7,31.5,30.5,0024.27,0007.77
2021-08-13 14:23:00,,0835.5,5.01,0.00,29.6,28.4,00.0,38.7,31.6,30.1,0024.75,0007.88
2021-08-13 14:24:00,,0835.5,4.99,0.00,29.6,28.6,00.0,38.8,31.6,30.4,0025.31,0007.89
2021-08-13 14:25:00,,0835.5,4.99,0.00,29.7,28.7,00.0,38.8,31.7,30.5,0024.70,0007.91
2021-08-13 14:26:00,,0835.5,5.01,0.00,29.7,28.8,00.0,38.8,31.7,30.3,0023.41,0007.97
2021-08-13 14:27:00,,0835.5,5.00,0.00,29.8,28.9,00.0,38.8,31.7,30.1,0023.38,0007.99
2021-08-13 14:28:00,,0835.5,5.00,0.00,29.8,29.0,00.0,38.8,31.8,29.9,0024.39,0007.97
2021-08-13 14:29:00,,0835.6,5.01,0.00,29.9,29.1,00.0,38.9,31.9,28.8,0025.23,0007.81
2021-08-13 14:30:00,,0835.6,5.00,0.00,29.9,29.2,00.0,38.9,32.0,28.6,0025.77,0007.53
2021-08-13 14:31:00,,0835.6,5.01,0.00,30.0,29.2,00.0,38.9,32.1,28.7,0027.62,0007.28
2021-08-13 14:32:00,,0835.6,5.00,0.00,29.9,28.6,00.0,38.8,32.0,27.2,0027.98,0007.03
2021-08-13 14:33:00,,0835.6,4.99,0.00,29.3,26.8,00.0,38.5,31.6,27.3,0027.31,0006.72
2021-08-13 14:34:00,,0835.5,5.01,0.00,29.1,26.4,00.0,38.3,31.4,31.1,0025.93,0006.28
2021-08-13 14:35:00,,0835.6,5.00,0.00,29.1,26.7,00.0,38.2,31.4,30.8,0024.63,0005.92
2021-08-13 14:36:00,,0835.6,5.01,0.00,29.2,27.1,00.0,38.2,31.4,30.4,0023.71,0005.54
2021-08-13 14:37:00,,0835.6,4.99,0.00,29.3,27.5,00.0,38.1,31.5,30.3,0023.39,0005.16
2021-08-13 14:38:00,,0835.6,5.02,0.00,29.3,27.9,00.0,38.1,31.5,30.2,0022.50,0004.77
2021-08-13 14:39:00,,0835.6,5.00,0.00,29.3,28.2,00.0,38.1,31.5,30.3,0020.52,0004.40
2021-08-13 14:40:00,,0835.6,5.00,0.00,29.3,28.4,00.0,38.1,31.5,30.3,0017.52,0004.15
2021-08-13 14:41:00,,0835.6,5.01,0.00,29.4,28.6,00.0,38.2,31.5,31.2,0018.90,0004.12
2021-08-13 14:42:00,,0835.5,4.99,0.00,29.4,28.8,00.0,38.2,31.5,30.3,0016.65,0004.07
2021-08-13 14:43:00,,0835.5,5.01,0.00,29.4,28.9,00.0,38.2,31.6,31.4,0015.37,0004.03
2021-08-13 14:44:00,,0835.6,5.00,0.00,29.5,29.0,00.0,38.2,31.6,30.6,0019.21,0004.20
2021-08-13 14:45:00,,0835.6,4.99,0.00,29.5,28.1,00.0,38.2,31.3,30.9,0021.02,0004.59
2021-08-13 14:46:00,,0835.5,5.01,0.00,29.4,26.7,00.0,38.2,30.9,31.3,0023.57,0005.04
2021-08-13 14:47:00,,0835.5,5.01,0.00,29.2,26.4,00.0,38.2,30.8,31.7,0025.13,0005.38
2021-08-13 14:48:00,,0835.6,4.99,0.00,29.2,26.8,00.0,38.2,30.9,31.2,0027.41,0005.72
2021-08-13 14:49:00,,0835.5,5.00,0.00,29.2,27.2,00.0,38.2,31.0,31.3,0028.16,0006.11
2021-08-13 14:50:00,,0835.6,4.99,0.00,29.2,27.5,00.0,38.2,31.1,31.5,0029.28,0006.57
2021-08-13 14:51:00,,0835.5,5.02,0.00,29.3,27.8,00.0,38.2,31.2,30.9,0029.34,0006.95
2021-08-13 14:52:00,,0835.6,4.98,0.00,29.3,28.1,00.0,38.2,31.3,30.8,0027.55,0007.28
2021-08-13 14:53:00,,0835.5,5.01,0.00,29.4,28.4,00.0,38.2,31.4,30.8,0028.21,0007.60
2021-08-13 14:54:00,,0835.6,5.00,0.00,29.4,28.6,00.0,38.3,31.4,30.8,0029.49,0008.00
2021-08-13 14:55:00,,0835.5,4.99,0.00,29.5,28.7,00.0,38.3,31.5,31.1,0027.48,0008.24
2021-08-13 14:56:00,,0835.5,5.00,0.00,29.5,28.9,00.0,38.4,31.6,31.1,0027.05,0008.28
2021-08-13 14:57:00,,0835.5,5.00,0.00,29.6,29.0,00.0,38.4,31.6,30.7,0028.39,0008.37
2021-08-13 14:58:00,,0835.5,5.01,0.00,29.6,28.5,00.0,38.4,31.5,30.4,0027.89,0008.39
2021-08-13 14:59:00,,0835.5,5.00,0.00,29.5,26.9,00.0,38.4,31.1,30.5,0026.36,0008.39
